Regional Weather Roundup
Issued by NWS

Home | Current Version | Previous Version | Graphics & Text | Print | Product List | Glossary On
Versions: 1 2 3 4 5 6 7 8 9 10 11 12 13 14 15 16 17 18 19 20 21 22 23 24 25 26 27 28 29 30 31 32 33 34 35 36 37 38 39 40 41 42 43 44 45 46 47 48 49 50
000
ASUS43 KLMK 241302
RWRKY
KENTUCKY REGIONAL WEATHER ROUNDUP
NATIONAL WEATHER SERVICE LOUISVILLE KY
900 AM EDT SUN MAY 24 2015

NOTE "FAIR" INDICATES FEW OR NO CLOUDS BELOW 12,000 FEET
WITH NO SIGNIFICANT WEATHER AND/OR OBSTRUCTIONS TO VISIBILITY.

KYZ001>023-026-027-061>063-070>075-241400-
WESTERN AND SOUTH CENTRAL KENTUCKY

CITY           SKY/WX    TMP DP  RH WIND       PRES   REMARKS
PADUCAH        PTSUNNY   71  58  63 S12       30.16R
HENDERSON      PTSUNNY   68  54  60 SE10G16   30.19F
OWENSBORO      PTSUNNY   69  56  63 S9        30.24R
HOPKINSVILLE   PTSUNNY   69  54  59 SE10      30.22R
BOWLING GREEN  PTSUNNY   70  54  56 S9        30.26S
GLASGOW        NOT AVBL
$$

KYZ024-025-028>034-038-045-046-053-241400-
NORTH CENTRAL KENTUCKY

CITY           SKY/WX    TMP DP  RH WIND       PRES   REMARKS
LOUISVILLE/SDF PTSUNNY   70  54  56 SE8       30.26S
LOUISVILLE/LOU PTSUNNY   71  53  52 S8        30.27S
FORT KNOX      PTSUNNY   69  53  56 S10       30.25S
$$

KYZ035>037-039>044-047>052-055>060-089>105-241400-
NORTHEAST KENTUCKY

CITY           SKY/WX    TMP DP  RH WIND       PRES   REMARKS
LEXINGTON      MOSUNNY   71  52  50 S12       30.30S
COVINGTON      PTSUNNY   69  54  58 S7        30.29R
FRANKFORT      MOSUNNY   70  53  54 MISG      30.28S
$$

KYZ054-064>069-076>088-106>120-241400-
SOUTHEAST KENTUCKY

CITY           SKY/WX    TMP DP  RH WIND       PRES   REMARKS
JACKSON        SUNNY     65  50  58 VRB3      30.35S
LONDON         SUNNY     66  52  60 S7        30.34S
SOMERSET       NOT AVBL
MIDDLESBORO    NOT AVBL
MONTICELLO     SUNNY     68  53  58 SE7       30.35R
$$




USA.gov is the U.S. government's official web portal to all federal, state and local government web resources and services.